Simultaneous Nadir Overpasses (SNOs) Predictions

Prediction of SNOs between GOES-16 and METOP-C Satellite Orbit:

Table of predicted SNOs for the next 14.0 days since TLE Epoch: 12/3/2022
Index Date Time (GOES-16) GOES-16 Lat,Lon METOP-C Lat,Lon Distance(km) Time Diff (sec)
1 12/04/2022 14:28:27 -0.05, -75.21 -0.15, -74.87 39.34 80
2 12/06/2022 02:50:06 0.04, -75.20 -0.89, -79.45 484.28 80
3 12/07/2022 02:26:47 0.04, -75.21 0.20, -74.46 85.59 80
4 12/08/2022 14:48:20 -0.04, -75.24 0.82, -79.02 431.49 80
5 12/09/2022 14:25:02 -0.04, -75.25 -0.33, -74.03 138.78 80
6 12/11/2022 02:46:41 0.03, -75.25 -0.71, -78.62 383.92 80
7 12/12/2022 02:23:21 0.03, -75.26 0.39, -73.62 186.63 80
8 12/13/2022 14:42:15 -0.02, -75.30 0.62, -78.19 329.39 80
9 12/14/2022 14:24:15 -0.02, -75.32 -0.47, -73.19 241.70 80
10 12/16/2022 02:43:16 0.02, -75.33 -0.51, -77.79 279.72 80
